Regional Weather Roundup
Issued by NWS

Home | Current Version | Previous Version | Graphics & Text | Print | Product List | Glossary On
Versions: 1 2 3 4 5 6 7 8 9 10 11 12 13 14 15 16 17 18 19 20 21 22 23 24 25 26 27 28 29 30 31 32 33 34 35 36 37 38 39 40 41 42 43 44 45 46 47 48 49 50
000
ASUS43 KMKX 131721
RWRWI

WISCONSIN REGIONAL WEATHER ROUNDUP
NATIONAL WEATHER SERVICE MILWAUKEE/SULLIVAN WI
1200 PM CDT SUN JUL 13 2014

NOTE: "FAIR" INDICATES FEW OR NO CLOUDS BELOW 12,000 FEET WITH NO
SIGNIFICANT WEATHER AND/OR OBSTRUCTIONS TO VISIBILITY.

WIZ001-002-006>008-014>016-023>028-131800-
NORTHWEST WISCONSIN

CITY           SKY/WX    TMP DP  RH WIND       PRES   REMARKS
SUPERIOR ARPT  PTSUNNY   68  50  52 SW10      29.88F
ASHLAND        SUNNY     69  49  48 W12G17    29.90F
HAYWARD        SUNNY     68  48  48 W8        29.93F
SIREN          SUNNY     69  47  44 W9        29.94F
RICE LAKE      SUNNY     68  49  50 W8        29.97S
LADYSMITH      SUNNY     68  47  47 NW8       29.96S
EAU CLAIRE     SUNNY     72  51  47 MISG      29.95S
MENOMONIE      SUNNY     72  49  42 W10       29.97S
NEW RICHMOND   SUNNY     70  50  49 W8        29.97S
OSCEOLA        SUNNY     70  51  50 SW6       29.98F
$$

WIZ003>005-009-010-017-018-131800-
NORTH CENTRAL WISCONSIN

CITY           SKY/WX    TMP DP  RH WIND       PRES   REMARKS
WOODRUFF       SUNNY     69  49  47 W10G18    29.91S
RHINELANDER    SUNNY     66  46  48 W9        29.92S
EAGLE RIVER    MOSUNNY   65  44  46 W12       29.90S
LAND O LAKES   SUNNY     66  43  43 NW6       29.90F
PHILLIPS       SUNNY     66  47  51 NW6       29.92S
TOMAHAWK       SUNNY     66  48  51 NW10G16   29.93S
MEDFORD        SUNNY     67  49  52 NW9       29.94S
MERRILL        SUNNY     69  48  48 NW12      29.92S
$$

WIZ029-030-035-036-043>047-131800-
CENTRAL WISCONSIN

CITY           SKY/WX    TMP DP  RH WIND       PRES   REMARKS
WAUSAU         SUNNY     71  47  42 NW14G20   29.90S
MOSINEE        SUNNY     72  48  43 NW13      29.93R
MARSHFIELD     SUNNY     71  49  45 NW12      29.94R
STEVENS POINT  MOSUNNY   71  47  43 NW10G16   29.92R
WAUPACA        SUNNY     78  54  42 W10       29.90S
WAUTOMA        MOSUNNY   77  63  61 W15       29.91S
WISC RAPIDS    MOSUNNY   75  54  47 NW12      29.94R
CAMP DOUGLAS   MOSUNNY   73  66  78 NW12G18   29.93S
$$

WIZ011>013-019>022-031-037>040-048>050-131800-
NORTHEAST WISCONSIN

CITY           SKY/WX    TMP DP  RH WIND       PRES   REMARKS
ANTIGO         SUNNY     67  48  52 NW13      29.91S
STURGEON BAY   SUNNY     73  55  53 NW14      29.86R
GREEN BAY      PTSUNNY   77  60  55 NW15G21   29.86F
MANITOWOC      PTSUNNY   75  65  70 W12       29.87S
APPLETON       PTSUNNY   73  61  64 W15       29.89S
CLINTONVILLE   SUNNY     75  43  31 NW10      29.88S
OSHKOSH        PTSUNNY   76  65  68 W9G18     29.88S
$$

WIZ032>034-041-042-053>061-131800-
SOUTHWEST WISCONSIN

CITY           SKY/WX    TMP DP  RH WIND       PRES   REMARKS
LA CROSSE      SUNNY     77  61  57 NW13      29.93S
SPARTA         MOSUNNY   74  52  46 NW12      29.95S
VIROQUA        PTSUNNY   74  67  79 W8        29.96F
BOSCOBEL       SUNNY     83  68  60 VRB7      29.93F HX  86
PRAIRIE DU CHI MOSUNNY   79  65  61 W9        29.94F HX  81
PLATTEVILLE    FAIR      78  70  75 W14       29.97F HX  80
$$

WIZ056-057-062-063-064-067-068-131800-
SOUTH CENTRAL WISCONSIN

CITY           SKY/WX    TMP DP  RH WIND       PRES   REMARKS
BARABOO/DELLS  MOSUNNY   77  61  59 W9G18     29.92F
LONE ROCK      MOSUNNY   82  67  60 W14       29.93F HX  84
WATERTOWN      CLOUDY    76  65  68 W12G17    29.91S
MADISON        PTSUNNY   78  66  66 NW12G18   29.92F HX  80
MIDDLETON      PTSUNNY   79  66  64 W12G17    29.93F HX  81
MONROE         MOSUNNY   77  64  65 W13       29.95S
JANESVILLE     MOSUNNY   81  63  54 W9        29.93F HX  82
$$

WIZ051-052-058>065-066-070>072-131800-
SOUTHEAST WISCONSIN

CITY           SKY/WX    TMP DP  RH WIND       PRES   REMARKS
MILWAUKEE      MOSUNNY   80  60  50 W14       29.91S HX  81
WAUKESHA       MOSUNNY   75  63  64 SW12      29.93S
MILWAUKEE/TIMM SUNNY     79  61  53 W10G17    29.91S HX  80
RACINE         SUNNY     78  65  63 W9        29.93S HX  80
BURLINGTON     SUNNY     75  65  72 SW9       29.93F
KENOSHA        SUNNY     77  65  66 W10       29.93S
FOND DU LAC    MOSUNNY   75  64  68 W10       29.90S
SHEBOYGAN      PTSUNNY   77  66  68 W16G22    29.88R
WEST BEND      PTSUNNY   77  61  57 W15       29.90S
JUNEAU         PTSUNNY   75  51  41 W17G23    29.92S
$$

LSZ147-162-131800-
LAKE SUPERIOR

STATION/POSITION TIME  TEMP    WIND        PRES    WAVE
                       AIR SEA DIR/SP/G            HT/PER
                 (UTC) (F)     (DEG/KT/KT) (MB)    (FT/S)
W MID LAKE BUOY  1650   44 39  220/ 10/ 12 1010.7F   2/ 3
PORT WING        1600   63     250/  9/ 14 1012.5F
SAXON HARBOR     1600          280/  6/ 10 1012.5F
$$

LMZ867-665-643>646-131800-
LAKE MICHIGAN

STATION/POSITION TIME  TEMP    WIND        PRES    WAVE
                       AIR SEA DIR/SP/G            HT/PER
                 (UTC) (F)     (DEG/KT/KT) (MB)    (FT/S)
N MID LAKE BUOY  1650   62 60  280/  6/  8 1009.5R   1/ 3
NORTHPORT PIER   1600   69     300/  7/ 14 1009.8S
KEWAUNEE LAKESHO 1700   74     290/ 11/ 17 1011.6R
SHEBOYGAN LAKESH 1700   77     280/ 14/ 20 1011.4R
PORT WASHINGTON  1600   79     280/  7/ 16 1012.5
MILWAUKEE LAKESH 1700   77     260/ 12/ 16   N/A
S MID LAKE BUOY  1650   64 62  220/ 10/ 10 1013.3F   1/ 3
KENOSHA   LAKESH 1700   77     260/ 12/ 15   N/A
$$

TC  - TEMPERATURE IN CELSIUS
VSB - VISIBILITY IN STATUTE MILES
WCI - WIND CHILL INDEX
HX  - HEAT INDEX




USA.gov is the U.S. government's official web portal to all federal, state and local government web resources and services.